[[{"header":{"parameterUnit":"m.s-1","parameterCategory":1,"la1":30.2991,"la2":30.254,"lo1":-89.0895,"lo2":-89.0444,"dx":0.0017,"dy":0.0017,"nx":28,"ny":28,"refTime":"2022-12-12T03:00:00:Z","depth":0,"parameterNumber":2,"parameterNumberName":"U-component_of_WINDS"},"data":[0,0,0,0,0,0,0,0,0,0,0,0,0,0,0,0,0,0,0,0,0,0,0,0,0,0,0,0,0,0,0,0,0,0,0,0,0,0,0,0,0,0,0,0,0,0,0,0,0,0,0,0,0,0,0,0,0,0,0.1301,0.1301,0,0.1336,0.1336,0.1337,0.1335,0.1335,0.1334,0.1334,0.137,0.1371,0.1373,0,0,0,0,0,0,0,0,0,0,0,0,0,0.1233,0.1235,0.1301,0.1301,0.1302,0.1336,0.1336,0.1337,0.1336,0.1335,0.1334,0.1334,0.1369,0.1371,0.1373,0,0,0,0,0,0,0,0,0,0,0,0,0,0.1265,0.1235,0.1301,0.1305,0.1306,0.1336,0.1336,0.1337,0.1336,0.1335,0.1334,0.1334,0.1369,0.1371,0.1373,0.1401,0,0,0.1379,0.138,0,0,0,0,0,0,0,0,0.1263,0.1268,0.1304,0.1305,0.1306,0.1331,0.1326,0.1358,0.1336,0.1324,0.1334,0.1333,0.1357,0.136,0.1369,0.1402,0.1404,0.138,0.1381,0.1382,0.1382,0,0,0,0,0,0,0,0.1261,0.1266,0.1315,0.1305,0.1306,0.1306,0.1309,0.1332,0.1345,0.1325,0.1325,0.1329,0.1358,0.1366,0.1369,0.1404,0.138,0.1381,0.1383,0.1384,0.1464,0.1465,0,0,0,0,0,0,0.1258,0.1264,0.1314,0.1316,0.1282,0.1307,0.1312,0.1323,0.1344,0.1347,0.133,0.1329,0.1363,0.1367,0.1371,0.1405,0.1382,0.1384,0.1385,0.1463,0.1464,0.1465,0,0,0,0,0,0,0.1256,0.1262,0.1312,0.129,0.1296,0.1309,0.1323,0.1324,0.1333,0.1348,0.135,0.1337,0.1363,0.1368,0.1393,0.1407,0.1385,0.1387,0.1462,0.1463,0.1464,0.1475,0,0,0,0,0,0,0.1255,0.1262,0.1272,0.129,0.1298,0.1334,0.1323,0.1326,0.1337,0.1336,0.1355,0.1357,0.1363,0.139,0.1396,0.1409,0.1388,0.1461,0.1463,0.1464,0.1473,0.1476,0.1479,0,0,0,0,0,0.1252,0.1273,0.1273,0.1279,0.1311,0.1335,0.1339,0.1345,0.1338,0.1349,0.1358,0.1356,0.1404,0.1393,0.1399,0.1413,0.146,0.1462,0.1464,0.1472,0.1476,0.1479,0,0,0,0,0,0,0.1256,0.1276,0.1275,0.1303,0.1317,0.1335,0.1349,0.1349,0.1365,0.1364,0.1371,0.1375,0.1401,0.1409,0.1397,0.1442,0.1431,0.1434,0.1435,0.1439,0.1441,0.1439,0.139,0,0,0,0,0,0.1261,0.1278,0.1294,0.1317,0.1325,0.1335,0.1346,0.135,0.1365,0.1371,0.1382,0.1397,0.1415,0.1427,0.1445,0.1474,0.1479,0.1487,0.149,0.1492,0.1495,0.1512,0.1516,0.1471,0.1471,0.1471,0,0,0.1269,0.1282,0.1293,0.1319,0.133,0.1349,0.1341,0.136,0.1375,0.1374,0.1399,0.1408,0.1425,0.1453,0.1466,0.1461,0.1508,0.1494,0.1496,0.1498,0.1515,0.1519,0.1523,0.1473,0.1472,0.1472,0,0,0.1295,0.1306,0.1327,0.1339,0.1357,0.1364,0.1369,0.1387,0.1393,0.1418,0.1418,0.1435,0.1466,0.1479,0.149,0.1521,0.152,0.1527,0.1541,0.1558,0.1561,0.1565,0.1577,0.1581,0.1529,0.1529,0.1529,0,0.1304,0.1332,0.1338,0.1359,0.137,0.137,0.1392,0.1403,0.1426,0.1434,0.1428,0.1468,0.148,0.1511,0.1519,0.1527,0.1534,0.1525,0.156,0.1564,0.1567,0.1579,0.1583,0.153,0.153,0.153,0.153,0,0.1343,0.1363,0.1377,0.14,0.1413,0.1434,0.1443,0.1456,0.1458,0.1466,0.1492,0.1506,0.1527,0.1535,0.1537,0.1567,0.1563,0.1559,0.1549,0.1572,0.1583,0.1588,0.1531,0.1531,0.1531,0.153,0,0,0.1373,0.1398,0.1404,0.1414,0.1434,0.145,0.1471,0.1492,0.1503,0.1518,0.1537,0.1564,0.156,0.1572,0.1576,0.159,0.1616,0.1584,0.1584,0.159,0.1651,0.1655,0.166,0.1615,0.1616,0.1617,0.165,0,0.1402,0.1439,0.1445,0.1479,0.1498,0.1498,0.1517,0.1531,0.1539,0.1557,0.1565,0.1585,0.1578,0.1585,0.1599,0.161,0.1628,0.1607,0.1633,0.1634,0.163,0.1666,0.167,0.1701,0.1654,0.1655,0.1656,0,0.144,0.1458,0.1493,0.1511,0.1519,0.1536,0.1556,0.1572,0.1589,0.1594,0.1608,0.161,0.1632,0.162,0.1652,0.1638,0.1649,0.1655,0.1657,0.166,0.1647,0.1672,0.1711,0.1716,0.1662,0.1662,0.1661,0,0.146,0.1492,0.1517,0.1526,0.1548,0.156,0.1569,0.1585,0.1598,0.1615,0.1624,0.1643,0.1654,0.167,0.1678,0.1668,0.1709,0.1698,0.1715,0.1715,0.1724,0.1724,0.1767,0.1729,0.1729,0.1729,0.1729,0,0.1492,0.1514,0.1527,0.1543,0.1567,0.1574,0.1599,0.1608,0.1622,0.164,0.1642,0.1659,0.1667,0.1686,0.1692,0.1718,0.1722,0.1728,0.1729,0.1728,0.1728,0.1736,0.1735,0.173,0.173,0.173,0.173,0,0.1519,0.1528,0.1556,0.1574,0.158,0.1597,0.1613,0.1629,0.1637,0.166,0.1666,0.1678,0.17,0.1709,0.1736,0.174,0.177,0.1769,0.1765,0.1766,0.1782,0.1781,0.1834,0.1841,0.1797,0.1798,0.1798,0,0.1539,0.1556,0.1577,0.1589,0.1599,0.1619,0.1631,0.1639,0.1652,0.1673,0.1687,0.1708,0.1727,0.1761,0.1773,0.1794,0.1794,0.1811,0.1797,0.1796,0.1796,0.1796,0.1798,0.1814,0.1815,0.1815,0.1815,0,0.1575,0.1579,0.1597,0.1618,0.1633,0.165,0.1666,0.1676,0.1686,0.1701,0.1724,0.1738,0.1765,0.1787,0.1809,0.1819,0.1819,0.1819,0.1825,0.1824,0.1822,0.1825,0.1773,0.1818,0.1818,0.1818,0.1818,0.1818,0.16,0.1615,0.1633,0.1654,0.1666,0.1682,0.1698,0.1708,0.1727,0.175,0.1753,0.1778,0.1795,0.1824,0.1835,0.1854,0.185,0.1857,0.1859,0.1862,0.1863,0.1818,0.1858,0.1858,0.1858,0.1858,0.1858,0,0.1637,0.1648,0.1667,0.169,0.1707,0.1705,0.1723,0.1737,0.1759,0.1775,0.1793,0.1819,0.1841,0.1854,0.1876,0.1889,0.189,0.1895,0.1895,0.1897,0.1865,0.1859,0.1894,0.1894,0.1894,0.1894,0.1894,0.1894,0.1658,0.1685,0.1691,0.1724,0.1735,0.176,0.177,0.1784,0.1797,0.1827,0.1845,0.1854,0.1869,0.1892,0.1912,0.1916,0.1925,0.193,0.1933,0.1903,0.1899,0.1896,0.189,0.1931,0.1931,0.1964,0.1964,0.1965]},{"header":{"parameterUnit":"m.s-1","parameterCategory":1,"la1":30.2991,"la2":30.254,"lo1":-89.0895,"lo2":-89.0444,"dx":0.0017,"dy":0.0017,"nx":28,"ny":28,"refTime":"2022-12-12T03:00:00:Z","depth":0,"parameterNumber":3,"parameterNumberName":"V-component_of_WINDS"},"data":[0,0,0,0,0,0,0,0,0,0,0,0,0,0,0,0,0,0,0,0,0,0,0,0,0,0,0,0,0,0,0,0,0,0,0,0,0,0,0,0,0,0,0,0,0,0,0,0,0,0,0,0,0,0,0,0,0,0,-1.3485,-1.3485,0,-1.3459,-1.3459,-1.3459,-1.3437,-1.3437,-1.3436,-1.3436,-1.3408,-1.3407,-1.3406,0,0,0,0,0,0,0,0,0,0,0,0,0,-1.3513,-1.3513,-1.3485,-1.3485,-1.3484,-1.3459,-1.3459,-1.3459,-1.3437,-1.3437,-1.3436,-1.3436,-1.3408,-1.3407,-1.3406,0,0,0,0,0,0,0,0,0,0,0,0,0,-1.3495,-1.3512,-1.3485,-1.3471,-1.3469,-1.346,-1.3459,-1.3459,-1.3437,-1.3437,-1.3436,-1.3436,-1.3408,-1.3407,-1.3406,-1.3408,0,0,-1.3404,-1.3404,0,0,0,0,0,0,0,0,-1.3496,-1.3494,-1.3473,-1.3472,-1.347,-1.3451,-1.3458,-1.3442,-1.3437,-1.3449,-1.3436,-1.3436,-1.3422,-1.342,-1.3416,-1.3407,-1.3406,-1.3404,-1.3403,-1.3403,-1.3403,0,0,0,0,0,0,0,-1.3498,-1.3495,-1.3475,-1.3473,-1.3471,-1.3465,-1.3462,-1.3455,-1.3438,-1.3448,-1.3446,-1.3444,-1.3421,-1.3417,-1.3415,-1.3405,-1.3404,-1.3403,-1.3403,-1.3402,-1.3397,-1.3397,0,0,0,0,0,0,-1.3501,-1.3497,-1.3476,-1.3474,-1.3483,-1.3464,-1.3461,-1.3457,-1.3438,-1.3435,-1.3444,-1.3443,-1.3418,-1.3416,-1.3414,-1.3415,-1.3403,-1.3402,-1.3402,-1.3396,-1.3397,-1.3397,0,0,0,0,0,0,-1.3502,-1.35,-1.3477,-1.3485,-1.3481,-1.3464,-1.346,-1.3457,-1.3453,-1.3435,-1.3431,-1.3443,-1.3418,-1.3415,-1.341,-1.3414,-1.3402,-1.3401,-1.3396,-1.3396,-1.3397,-1.3418,0,0,0,0,0,0,-1.3503,-1.35,-1.3501,-1.3485,-1.3481,-1.3474,-1.346,-1.3457,-1.3452,-1.345,-1.3433,-1.343,-1.3418,-1.3411,-1.3409,-1.3413,-1.34,-1.3395,-1.3396,-1.3397,-1.3417,-1.3419,-1.3421,0,0,0,0,0,-1.3504,-1.3508,-1.3502,-1.3499,-1.3482,-1.3474,-1.3472,-1.3458,-1.3452,-1.3453,-1.3441,-1.343,-1.3414,-1.3411,-1.3409,-1.3412,-1.3395,-1.3396,-1.3397,-1.3416,-1.3418,-1.3421,0,0,0,0,0,0,-1.3524,-1.3505,-1.3498,-1.3497,-1.3487,-1.3471,-1.3471,-1.3462,-1.3453,-1.3452,-1.3434,-1.3431,-1.3428,-1.3419,-1.3416,-1.3412,-1.3403,-1.3403,-1.3418,-1.3421,-1.3423,-1.3425,-1.34,0,0,0,0,0,-1.3528,-1.3524,-1.3508,-1.3508,-1.3504,-1.3488,-1.3484,-1.3475,-1.3464,-1.3459,-1.3448,-1.3437,-1.3429,-1.3424,-1.3416,-1.3415,-1.3411,-1.3416,-1.3418,-1.342,-1.342,-1.3419,-1.3421,-1.34,-1.34,-1.34,0,0,-1.3537,-1.3526,-1.3525,-1.3512,-1.3503,-1.3499,-1.3485,-1.3481,-1.3477,-1.3458,-1.3453,-1.3444,-1.3431,-1.3428,-1.3426,-1.3421,-1.3425,-1.3421,-1.3422,-1.3422,-1.342,-1.3422,-1.3424,-1.34,-1.34,-1.34,0,0,-1.3551,-1.3542,-1.3542,-1.3534,-1.3521,-1.3511,-1.3511,-1.3496,-1.3489,-1.3484,-1.347,-1.3465,-1.3452,-1.3443,-1.3437,-1.3447,-1.3437,-1.3445,-1.3456,-1.3455,-1.3456,-1.3458,-1.3461,-1.3463,-1.3445,-1.3445,-1.3446,0,-1.3563,-1.3556,-1.3542,-1.3539,-1.3533,-1.3518,-1.3517,-1.3509,-1.3494,-1.3491,-1.3485,-1.3469,-1.3459,-1.3454,-1.3456,-1.3452,-1.3451,-1.3447,-1.3457,-1.3459,-1.346,-1.3463,-1.3464,-1.3447,-1.3446,-1.3446,-1.3446,0,-1.3572,-1.3567,-1.3568,-1.3555,-1.355,-1.3547,-1.3533,-1.3529,-1.352,-1.351,-1.3504,-1.3492,-1.3481,-1.3479,-1.3469,-1.3472,-1.3469,-1.3461,-1.3451,-1.3463,-1.3466,-1.3467,-1.3448,-1.3448,-1.3447,-1.3447,0,0,-1.3597,-1.3577,-1.3577,-1.3571,-1.3557,-1.3552,-1.3549,-1.3539,-1.3536,-1.3527,-1.3523,-1.3513,-1.3505,-1.3498,-1.3488,-1.3487,-1.3495,-1.3478,-1.3478,-1.3482,-1.3497,-1.3504,-1.3505,-1.3488,-1.3489,-1.3489,-1.3498,0,-1.3608,-1.3602,-1.359,-1.3588,-1.3583,-1.3568,-1.3565,-1.3555,-1.3546,-1.354,-1.3529,-1.3522,-1.3513,-1.3508,-1.3507,-1.3495,-1.3498,-1.3494,-1.3484,-1.3484,-1.3488,-1.3507,-1.3514,-1.3523,-1.3499,-1.3499,-1.3499,0,-1.362,-1.3613,-1.361,-1.3596,-1.3593,-1.3591,-1.3581,-1.3576,-1.3564,-1.3558,-1.355,-1.3539,-1.3534,-1.3525,-1.3517,-1.3515,-1.351,-1.3504,-1.3504,-1.3502,-1.3493,-1.3506,-1.3526,-1.3527,-1.3501,-1.3501,-1.3501,0,-1.3639,-1.3628,-1.3625,-1.362,-1.3604,-1.3602,-1.3595,-1.3583,-1.3578,-1.3569,-1.3566,-1.3556,-1.355,-1.3543,-1.3529,-1.3523,-1.3523,-1.3513,-1.3516,-1.3517,-1.3517,-1.3517,-1.3537,-1.3514,-1.3514,-1.3514,-1.3514,0,-1.3653,-1.3652,-1.3633,-1.3632,-1.363,-1.3615,-1.3614,-1.3605,-1.3595,-1.3591,-1.3576,-1.3573,-1.3554,-1.3548,-1.3537,-1.3533,-1.353,-1.3524,-1.3521,-1.3525,-1.3526,-1.3522,-1.3521,-1.3514,-1.3514,-1.3514,-1.3514,0,-1.3674,-1.3661,-1.3657,-1.3642,-1.3638,-1.3637,-1.3624,-1.3621,-1.3611,-1.3606,-1.3604,-1.3587,-1.3579,-1.3565,-1.3552,-1.3545,-1.3543,-1.3537,-1.3547,-1.3545,-1.355,-1.355,-1.3567,-1.3569,-1.3545,-1.3546,-1.3546,0,-1.3683,-1.3682,-1.3667,-1.3664,-1.3657,-1.3652,-1.3647,-1.3632,-1.3627,-1.3614,-1.3613,-1.3604,-1.3596,-1.3584,-1.3571,-1.3561,-1.3555,-1.3562,-1.3554,-1.3558,-1.3556,-1.3556,-1.3556,-1.3564,-1.3565,-1.3565,-1.3565,0,-1.3702,-1.3696,-1.3689,-1.3681,-1.3676,-1.3668,-1.366,-1.3658,-1.3641,-1.3636,-1.3628,-1.3622,-1.361,-1.3601,-1.359,-1.3581,-1.357,-1.3568,-1.3568,-1.3573,-1.3578,-1.3575,-1.3552,-1.3568,-1.3567,-1.3567,-1.3567,-1.3567,-1.3717,-1.3716,-1.3705,-1.3698,-1.3691,-1.3683,-1.368,-1.367,-1.3664,-1.3653,-1.3644,-1.3637,-1.3625,-1.3609,-1.3601,-1.3595,-1.359,-1.359,-1.359,-1.3591,-1.3592,-1.3579,-1.3592,-1.3592,-1.3592,-1.3592,-1.3592,0,-1.3735,-1.3727,-1.3721,-1.3711,-1.3706,-1.3697,-1.3687,-1.3683,-1.3677,-1.3667,-1.366,-1.3651,-1.3642,-1.3628,-1.3618,-1.3616,-1.3611,-1.3614,-1.3614,-1.3612,-1.3597,-1.3598,-1.3618,-1.3618,-1.3618,-1.3618,-1.3618,-1.3618,-1.3744,-1.3741,-1.3733,-1.3726,-1.3719,-1.3712,-1.3707,-1.37,-1.3692,-1.3683,-1.3676,-1.3668,-1.3656,-1.3645,-1.3637,-1.3633,-1.363,-1.3634,-1.3629,-1.3615,-1.3613,-1.3611,-1.3611,-1.3634,-1.3634,-1.3644,-1.3644,-1.3644]}]]